Time,TemperatureF,DewpointF,PressureIn,WindDirection,WindDirectionDegrees,WindSpeedMPH,WindSpeedGustMPH,Humidity,HourlyPrecipIn,Conditions,Clouds,dailyrainin,SoftwareType,DateUTC
2013-11-02 00:00:00,46.9,14.6,28.73,WNW,297,5.0,9.0,27,0.00,CLR,,0.00,WeatherDisplay:10.37,2013-11-02 04:00:00,
2013-11-02 00:05:00,46.8,14.5,28.73,WNW,301,6.0,8.0,27,0.00,CLR,,0.00,WeatherDisplay:10.37,2013-11-02 04:05:00,
2013-11-02 00:10:00,46.8,14.5,28.73,WNW,294,3.0,6.0,27,0.00,CLR,,0.00,WeatherDisplay:10.37,2013-11-02 04:10:00,
2013-11-02 00:15:00,46.7,15.3,28.73,West,280,6.0,8.0,28,0.00,CLR,,0.00,WeatherDisplay:10.37,2013-11-02 04:15:00,
2013-11-02 00:20:00,46.6,15.2,28.73,West,277,5.0,6.0,28,0.00,CLR,,0.00,WeatherDisplay:10.37,2013-11-02 04:20:00,
2013-11-02 00:30:00,46.6,15.2,28.73,WNW,285,5.0,8.0,28,0.00,CLR,,0.00,WeatherDisplay:10.37,2013-11-02 04:30:00,
2013-11-02 00:35:00,46.6,15.2,28.73,WNW,286,3.0,6.0,28,0.00,CLR,,0.00,WeatherDisplay:10.37,2013-11-02 04:35:00,
2013-11-02 00:40:00,46.6,15.2,28.73,WNW,287,3.0,6.0,28,0.00,CLR,,0.00,WeatherDisplay:10.37,2013-11-02 04:40:00,
2013-11-02 00:45:00,46.6,15.2,28.73,West,274,5.0,8.0,28,0.00,CLR,,0.00,WeatherDisplay:10.37,2013-11-02 04:45:00,
2013-11-02 00:50:00,46.6,15.2,28.73,West,281,3.0,8.0,28,0.00,CLR,,0.00,WeatherDisplay:10.37,2013-11-02 04:50:00,
2013-11-02 01:00:00,46.4,15.0,28.73,WNW,298,6.0,9.0,28,0.00,CLR,,0.00,WeatherDisplay:10.37,2013-11-02 05:00:00,
2013-11-02 01:05:00,46.4,15.0,28.73,WNW,298,6.0,8.0,28,0.00,CLR,,0.00,WeatherDisplay:10.37,2013-11-02 05:05:00,
2013-11-02 01:10:00,46.4,15.0,28.73,WNW,301,3.0,6.0,28,0.00,CLR,,0.00,WeatherDisplay:10.37,2013-11-02 05:10:00,
2013-11-02 01:20:00,46.4,15.0,28.73,WNW,300,3.0,6.0,28,0.00,CLR,,0.00,WeatherDisplay:10.37,2013-11-02 05:20:00,
2013-11-02 01:25:00,46.4,15.0,28.72,WNW,299,5.0,9.0,28,0.00,CLR,,0.00,WeatherDisplay:10.37,2013-11-02 05:25:00,
2013-11-02 01:30:00,46.4,15.0,28.70,WNW,301,5.0,6.0,28,0.00,CLR,,0.00,WeatherDisplay:10.37,2013-11-02 05:30:00,
2013-11-02 01:35:00,46.4,15.0,28.70,WNW,298,3.0,8.0,28,0.00,CLR,,0.00,WeatherDisplay:10.37,2013-11-02 05:35:00,
2013-11-02 01:40:00,46.4,15.0,28.71,WNW,288,5.0,6.0,28,0.00,CLR,,0.00,WeatherDisplay:10.37,2013-11-02 05:40:00,
2013-11-02 01:45:00,46.4,15.0,28.73,WNW,287,3.0,6.0,28,0.00,CLR,,0.00,WeatherDisplay:10.37,2013-11-02 05:45:00,
2013-11-02 01:50:00,46.4,15.0,28.73,WNW,283,3.0,6.0,28,0.00,CLR,,0.00,WeatherDisplay:10.37,2013-11-02 05:50:00,
2013-11-02 02:00:00,46.4,15.0,28.73,NW,305,3.0,6.0,28,0.00,CLR,,0.00,WeatherDisplay:10.37,2013-11-02 06:00:00,
2013-11-02 02:05:00,46.4,15.0,28.73,WNW,292,3.0,6.0,28,0.00,CLR,,0.00,WeatherDisplay:10.37,2013-11-02 06:05:00,
2013-11-02 02:10:00,46.4,15.0,28.73,WNW,291,3.0,6.0,28,0.00,CLR,,0.00,WeatherDisplay:10.37,2013-11-02 06:10:00,
2013-11-02 02:20:00,46.2,15.7,28.73,WNW,296,3.0,7.0,29,0.00,CLR,,0.00,WeatherDisplay:10.37,2013-11-02 06:20:00,
2013-11-02 02:30:00,46.2,15.7,28.73,WNW,293,5.0,8.0,29,0.00,CLR,,0.00,WeatherDisplay:10.37,2013-11-02 06:30:00,
2013-11-02 02:35:00,46.2,15.7,28.73,WNW,295,5.0,12.0,29,0.00,CLR,,0.00,WeatherDisplay:10.37,2013-11-02 06:35:00,
2013-11-02 02:40:00,46.2,15.7,28.73,WNW,292,5.0,7.0,29,0.00,CLR,,0.00,WeatherDisplay:10.37,2013-11-02 06:40:00,
2013-11-02 02:45:00,46.2,15.7,28.73,WNW,299,5.0,8.0,29,0.00,CLR,,0.00,WeatherDisplay:10.37,2013-11-02 06:45:00,
2013-11-02 02:50:00,46.0,14.7,28.73,WNW,302,3.0,8.0,28,0.00,CLR,,0.00,WeatherDisplay:10.37,2013-11-02 06:50:00,
2013-11-02 02:55:00,46.0,14.7,28.73,NW,304,5.0,7.0,28,0.00,CLR,,0.00,WeatherDisplay:10.37,2013-11-02 06:55:00,
2013-11-02 03:00:00,46.0,14.7,28.73,NW,309,5.0,9.0,28,0.00,CLR,,0.00,WeatherDisplay:10.37,2013-11-02 07:00:00,
2013-11-02 03:05:00,46.0,14.7,28.73,WNW,300,5.0,9.0,28,0.00,CLR,,0.00,WeatherDisplay:10.37,2013-11-02 07:05:00,
2013-11-02 03:10:00,46.0,14.7,28.73,WNW,289,5.0,8.0,28,0.00,CLR,,0.00,WeatherDisplay:10.37,2013-11-02 07:10:00,
2013-11-02 03:20:00,45.9,14.5,28.73,WNW,298,3.0,8.0,28,0.00,CLR,,0.00,WeatherDisplay:10.37,2013-11-02 07:20:00,
2013-11-02 03:30:00,45.9,15.3,28.73,WNW,293,3.0,6.0,29,0.00,CLR,,0.00,WeatherDisplay:10.37,2013-11-02 07:30:00,
2013-11-02 03:40:00,45.9,15.3,28.73,WNW,292,2.0,6.0,29,0.00,CLR,,0.00,WeatherDisplay:10.37,2013-11-02 07:40:00,
2013-11-02 03:45:00,45.7,15.2,28.73,WNW,285,3.0,6.0,29,0.00,CLR,,0.00,WeatherDisplay:10.37,2013-11-02 07:45:00,
2013-11-02 03:50:00,45.7,15.2,28.73,WNW,285,5.0,8.0,29,0.00,CLR,,0.00,WeatherDisplay:10.37,2013-11-02 07:50:00,
2013-11-02 04:00:00,45.7,15.2,28.73,WNW,285,1.0,5.0,29,0.00,CLR,,0.00,WeatherDisplay:10.37,2013-11-02 08:00:00,
2013-11-02 04:05:00,45.7,15.2,28.73,West,262,5.0,6.0,29,0.00,CLR,,0.00,WeatherDisplay:10.37,2013-11-02 08:05:00,
2013-11-02 04:10:00,45.7,15.2,28.73,West,270,3.0,6.0,29,0.00,CLR,,0.00,WeatherDisplay:10.37,2013-11-02 08:10:00,
2013-11-02 04:15:00,45.7,15.2,28.73,West,272,1.0,7.0,29,0.00,CLR,,0.00,WeatherDisplay:10.37,2013-11-02 08:15:00,
2013-11-02 04:20:00,45.7,15.2,28.73,West,279,3.0,6.0,29,0.00,CLR,,0.00,WeatherDisplay:10.37,2013-11-02 08:20:00,
2013-11-02 04:25:00,45.7,15.2,28.73,WNW,285,3.0,8.0,29,0.00,CLR,,0.00,WeatherDisplay:10.37,2013-11-02 08:25:00,
2013-11-02 04:30:00,45.7,15.2,28.73,WNW,285,3.0,7.0,29,0.00,CLR,,0.00,WeatherDisplay:10.37,2013-11-02 08:30:00,
2013-11-02 04:35:00,45.7,15.2,28.73,WNW,282,3.0,6.0,29,0.00,CLR,,0.00,WeatherDisplay:10.37,2013-11-02 08:35:00,
2013-11-02 04:40:00,45.7,15.2,28.73,WNW,283,2.0,6.0,29,0.00,CLR,,0.00,WeatherDisplay:10.37,2013-11-02 08:40:00,
2013-11-02 04:50:00,45.7,15.2,28.73,WNW,295,5.0,6.0,29,0.00,CLR,,0.00,WeatherDisplay:10.37,2013-11-02 08:50:00,
2013-11-02 05:00:00,45.7,15.2,28.76,WNW,287,3.0,6.0,29,0.00,CLR,,0.00,WeatherDisplay:10.37,2013-11-02 09:00:00,
2013-11-02 05:05:00,45.9,15.3,28.76,WNW,299,3.0,6.0,29,0.00,CLR,,0.00,WeatherDisplay:10.37,2013-11-02 09:05:00,
2013-11-02 05:10:00,45.9,15.3,28.76,NW,306,3.0,8.0,29,0.00,CLR,,0.00,WeatherDisplay:10.37,2013-11-02 09:10:00,
2013-11-02 05:20:00,45.9,15.3,28.76,West,280,3.0,9.0,29,0.00,CLR,,0.00,WeatherDisplay:10.37,2013-11-02 09:20:00,
2013-11-02 05:25:00,45.9,15.3,28.76,WNW,287,5.0,6.0,29,0.00,CLR,,0.00,WeatherDisplay:10.37,2013-11-02 09:25:00,
2013-11-02 05:30:00,45.9,15.3,28.76,WNW,285,5.0,8.0,29,0.00,CLR,,0.00,WeatherDisplay:10.37,2013-11-02 09:30:00,
2013-11-02 05:40:00,45.9,15.3,28.76,WNW,293,6.0,8.0,29,0.00,CLR,,0.00,WeatherDisplay:10.37,2013-11-02 09:40:00,
2013-11-02 05:50:00,45.8,15.3,28.76,WNW,294,3.0,6.0,29,0.00,CLR,,0.00,WeatherDisplay:10.37,2013-11-02 09:50:00,
2013-11-02 05:55:00,45.7,15.2,28.76,WNW,293,3.0,6.0,29,0.00,CLR,,0.00,WeatherDisplay:10.37,2013-11-02 09:55:00,
2013-11-02 06:00:00,45.7,15.2,28.76,WNW,298,2.0,6.0,29,0.00,CLR,,0.00,WeatherDisplay:10.37,2013-11-02 10:00:00,
2013-11-02 06:05:00,45.6,15.2,28.76,WNW,290,3.0,6.0,29,0.00,CLR,,0.00,WeatherDisplay:10.37,2013-11-02 10:05:00,
2013-11-02 06:10:00,45.7,15.2,28.76,WNW,300,3.0,6.0,29,0.00,CLR,,0.00,WeatherDisplay:10.37,2013-11-02 10:10:00,
2013-11-02 06:15:00,45.7,15.2,28.76,NW,308,5.0,7.0,29,0.00,CLR,,0.00,WeatherDisplay:10.37,2013-11-02 10:15:00,
2013-11-02 06:20:00,45.5,15.0,28.76,WNW,300,3.0,6.0,29,0.00,CLR,,0.00,WeatherDisplay:10.37,2013-11-02 10:20:00,
2013-11-02 06:30:00,45.5,15.0,28.76,WNW,287,3.0,6.0,29,0.00,CLR,,0.00,WeatherDisplay:10.37,2013-11-02 10:30:00,
2013-11-02 06:35:00,45.3,14.9,28.76,WNW,293,3.0,6.0,29,0.00,CLR,,0.00,WeatherDisplay:10.37,2013-11-02 10:35:00,
2013-11-02 06:40:00,45.5,15.0,28.76,WNW,295,3.0,6.0,29,0.00,CLR,,0.00,WeatherDisplay:10.37,2013-11-02 10:40:00,
2013-11-02 06:45:00,45.5,15.0,28.76,WNW,302,3.0,8.0,29,0.00,CLR,,0.00,WeatherDisplay:10.37,2013-11-02 10:45:00,
2013-11-02 06:50:00,45.5,15.0,28.76,NW,304,3.0,5.0,29,0.00,CLR,,0.00,WeatherDisplay:10.37,2013-11-02 10:50:00,
2013-11-02 06:55:00,45.5,15.0,28.76,WNW,303,3.0,6.0,29,0.00,CLR,,0.00,WeatherDisplay:10.37,2013-11-02 10:55:00,
2013-11-02 07:05:00,45.1,14.7,28.76,WNW,300,3.0,6.0,29,0.00,CLR,,0.00,WeatherDisplay:10.37,2013-11-02 11:05:00,
2013-11-02 07:10:00,45.3,14.9,28.77,WNW,301,2.0,6.0,29,0.00,CLR,,0.00,WeatherDisplay:10.37,2013-11-02 11:10:00,
2013-11-02 07:20:00,45.3,15.7,28.79,WNW,289,3.0,6.0,30,0.00,CLR,,0.00,WeatherDisplay:10.37,2013-11-02 11:20:00,
2013-11-02 07:30:00,45.2,15.6,28.79,WNW,295,2.0,5.0,30,0.00,CLR,,0.00,WeatherDisplay:10.37,2013-11-02 11:30:00,
2013-11-02 07:40:00,44.8,15.2,28.79,WNW,293,3.0,6.0,30,0.00,CLR,,0.00,WeatherDisplay:10.37,2013-11-02 11:40:00,
2013-11-02 07:50:00,44.2,14.7,28.79,WNW,286,3.0,8.0,30,0.00,CLR,,0.00,WeatherDisplay:10.37,2013-11-02 11:50:00,
2013-11-02 07:55:00,44.1,13.8,28.79,WNW,285,3.0,6.0,29,0.00,CLR,,0.00,WeatherDisplay:10.37,2013-11-02 11:55:00,
2013-11-02 08:05:00,44.1,14.6,28.79,WNW,297,5.0,8.0,30,0.00,CLR,,0.00,WeatherDisplay:10.37,2013-11-02 12:05:00,
2013-11-02 08:15:00,44.4,14.1,28.79,NW,311,3.0,6.0,29,0.00,CLR,,0.00,WeatherDisplay:10.37,2013-11-02 12:15:00,
2013-11-02 08:20:00,44.4,14.1,28.79,WNW,300,5.0,6.0,29,0.00,CLR,,0.00,WeatherDisplay:10.37,2013-11-02 12:20:00,
2013-11-02 08:25:00,44.5,14.1,28.79,WNW,299,5.0,6.0,29,0.00,CLR,,0.00,WeatherDisplay:10.37,2013-11-02 12:25:00,
2013-11-02 08:30:00,44.6,13.5,28.79,WNW,296,3.0,8.0,28,0.00,CLR,,0.00,WeatherDisplay:10.37,2013-11-02 12:30:00,
2013-11-02 08:40:00,44.6,13.5,28.79,WNW,286,3.0,6.0,28,0.00,CLR,,0.00,WeatherDisplay:10.37,2013-11-02 12:40:00,
2013-11-02 08:50:00,44.5,13.4,28.79,NW,304,3.0,6.0,28,0.00,CLR,,0.00,WeatherDisplay:10.37,2013-11-02 12:50:00,
2013-11-02 09:00:00,44.4,14.1,28.79,WNW,296,5.0,6.0,29,0.00,CLR,,0.00,WeatherDisplay:10.37,2013-11-02 13:00:00,
2013-11-02 09:05:00,44.4,13.3,28.79,WNW,286,5.0,8.0,28,0.00,CLR,,0.00,WeatherDisplay:10.37,2013-11-02 13:05:00,
2013-11-02 09:10:00,44.6,13.5,28.79,WNW,290,3.0,6.0,28,0.00,CLR,,0.00,WeatherDisplay:10.37,2013-11-02 13:10:00,
2013-11-02 09:20:00,44.8,13.6,28.79,WNW,302,5.0,8.0,28,0.00,CLR,,0.00,WeatherDisplay:10.37,2013-11-02 13:20:00,
2013-11-02 09:30:00,45.1,13.9,28.82,WNW,296,5.0,6.0,28,0.00,CLR,,0.00,WeatherDisplay:10.37,2013-11-02 13:30:00,
2013-11-02 09:40:00,45.0,13.8,28.82,WNW,293,5.0,7.0,28,0.00,CLR,,0.00,WeatherDisplay:10.37,2013-11-02 13:40:00,
2013-11-02 09:50:00,46.0,13.9,28.82,WNW,289,6.0,8.0,27,0.00,CLR,,0.00,WeatherDisplay:10.37,2013-11-02 13:50:00,
2013-11-02 10:00:00,46.6,11.7,28.82,WNW,302,6.0,8.0,24,0.00,CLR,,0.00,WeatherDisplay:10.37,2013-11-02 14:00:00,
2013-11-02 10:10:00,47.3,12.3,28.82,West,281,5.0,6.0,24,0.00,CLR,,0.00,WeatherDisplay:10.37,2013-11-02 14:10:00,
2013-11-02 10:20:00,46.9,10.0,28.82,WNW,303,5.0,8.0,22,0.00,CLR,,0.00,WeatherDisplay:10.37,2013-11-02 14:20:00,
2013-11-02 10:25:00,46.6,11.7,28.82,NW,307,5.0,8.0,24,0.00,CLR,,0.00,WeatherDisplay:10.37,2013-11-02 14:25:00,
2013-11-02 10:30:00,46.4,11.5,28.82,NW,309,6.0,8.0,24,0.00,CLR,,0.00,WeatherDisplay:10.37,2013-11-02 14:30:00,
2013-11-02 10:40:00,46.4,11.5,28.82,WNW,298,5.0,8.0,24,0.00,CLR,,0.00,WeatherDisplay:10.37,2013-11-02 14:40:00,
2013-11-02 10:50:00,47.4,12.4,28.82,WNW,295,5.0,8.0,24,0.00,CLR,,0.00,WeatherDisplay:10.37,2013-11-02 14:50:00,
2013-11-02 10:55:00,48.0,10.9,28.83,WNW,290,5.0,8.0,22,0.00,CLR,,0.00,WeatherDisplay:10.37,2013-11-02 14:55:00,
2013-11-02 11:00:00,47.7,10.6,28.85,WNW,298,5.0,7.0,22,0.00,CLR,,0.00,WeatherDisplay:10.37,2013-11-02 15:00:00,
2013-11-02 11:05:00,47.3,10.3,28.85,WNW,303,5.0,8.0,22,0.00,CLR,,0.00,WeatherDisplay:10.37,2013-11-02 15:05:00,
2013-11-02 11:10:00,47.5,10.5,28.85,NW,306,6.0,12.0,22,0.00,CLR,,0.00,WeatherDisplay:10.37,2013-11-02 15:10:00,
2013-11-02 11:15:00,47.9,10.8,28.85,NW,305,5.0,8.0,22,0.00,CLR,,0.00,WeatherDisplay:10.37,2013-11-02 15:15:00,
2013-11-02 11:25:00,48.7,10.5,28.85,NW,315,5.0,9.0,21,0.00,CLR,,0.00,WeatherDisplay:10.37,2013-11-02 15:25:00,
2013-11-02 11:30:00,48.2,10.1,28.85,NW,325,5.0,8.0,21,0.00,CLR,,0.00,WeatherDisplay:10.37,2013-11-02 15:30:00,
2013-11-02 11:40:00,48.4,10.2,28.85,NW,305,3.0,6.0,21,0.00,CLR,,0.00,WeatherDisplay:10.37,2013-11-02 15:40:00,
2013-11-02 11:50:00,48.9,10.6,28.85,WNW,295,3.0,6.0,21,0.00,CLR,,0.00,WeatherDisplay:10.37,2013-11-02 15:50:00,
2013-11-02 11:55:00,50.0,11.5,28.85,WNW,290,5.0,8.0,21,0.00,CLR,,0.00,WeatherDisplay:10.37,2013-11-02 15:55:00,
2013-11-02 12:00:00,50.5,12.0,28.85,WNW,296,5.0,8.0,21,0.00,CLR,,0.00,WeatherDisplay:10.37,2013-11-02 16:00:00,
2013-11-02 12:10:00,50.7,12.1,28.85,WNW,286,5.0,7.0,21,0.00,CLR,,0.00,WeatherDisplay:10.37,2013-11-02 16:10:00,
2013-11-02 12:15:00,50.2,11.7,28.85,WNW,294,6.0,10.0,21,0.00,CLR,,0.00,WeatherDisplay:10.37,2013-11-02 16:15:00,
2013-11-02 12:20:00,49.6,11.2,28.85,NW,305,6.0,8.0,21,0.00,CLR,,0.00,WeatherDisplay:10.37,2013-11-02 16:20:00,
2013-11-02 12:30:00,50.4,9.6,28.85,NW,305,6.0,12.0,19,0.00,CLR,,0.00,WeatherDisplay:10.37,2013-11-02 16:30:00,
2013-11-02 12:40:00,50.0,11.6,28.86,NW,310,6.0,10.0,21,0.00,CLR,,0.00,WeatherDisplay:10.37,2013-11-02 16:40:00,
2013-11-02 12:50:00,51.9,9.7,28.88,WNW,290,6.0,8.0,18,0.00,CLR,,0.00,WeatherDisplay:10.37,2013-11-02 16:50:00,
2013-11-02 13:00:00,51.6,10.6,28.88,WNW,301,6.0,10.0,19,0.00,CLR,,0.00,WeatherDisplay:10.37,2013-11-02 17:00:00,
2013-11-02 13:10:00,50.2,9.5,28.88,NW,313,5.0,8.0,19,0.00,CLR,,0.00,WeatherDisplay:10.37,2013-11-02 17:10:00,
2013-11-02 13:20:00,49.6,9.0,28.88,NW,306,6.0,8.0,19,0.00,CLR,,0.00,WeatherDisplay:10.37,2013-11-02 17:20:00,
2013-11-02 13:30:00,49.7,9.1,28.88,NW,307,7.0,8.0,19,0.00,CLR,,0.00,WeatherDisplay:10.37,2013-11-02 17:30:00,
2013-11-02 13:40:00,50.8,9.9,28.88,NW,304,6.0,8.0,19,0.00,CLR,,0.00,WeatherDisplay:10.37,2013-11-02 17:40:00,
2013-11-02 13:50:00,51.8,9.6,28.88,NW,312,6.0,9.0,18,0.00,CLR,,0.00,WeatherDisplay:10.37,2013-11-02 17:50:00,
2013-11-02 13:55:00,52.7,10.3,28.88,NW,304,6.0,11.0,18,0.00,CLR,,0.00,WeatherDisplay:10.37,2013-11-02 17:55:00,
2013-11-02 14:00:00,52.2,9.9,28.88,WNW,295,7.0,10.0,18,0.00,CLR,,0.00,WeatherDisplay:10.37,2013-11-02 18:00:00,
2013-11-02 14:05:00,51.5,10.5,28.88,WNW,303,7.0,10.0,19,0.00,CLR,,0.00,WeatherDisplay:10.37,2013-11-02 18:05:00,
2013-11-02 14:10:00,51.1,10.2,28.88,NW,310,6.0,8.0,19,0.00,CLR,,0.00,WeatherDisplay:10.37,2013-11-02 18:10:00,
2013-11-02 14:20:00,50.5,9.7,28.88,WNW,298,7.0,13.0,19,0.00,CLR,,0.00,WeatherDisplay:10.37,2013-11-02 18:20:00,
2013-11-02 14:25:00,50.8,10.0,28.88,WNW,301,8.0,13.0,19,0.00,CLR,,0.00,WeatherDisplay:10.37,2013-11-02 18:25:00,
2013-11-02 14:30:00,51.1,10.2,28.88,WNW,303,7.0,11.0,19,0.00,CLR,,0.00,WeatherDisplay:10.37,2013-11-02 18:30:00,
2013-11-02 14:35:00,51.4,10.4,28.88,NW,308,7.0,10.0,19,0.00,CLR,,0.00,WeatherDisplay:10.37,2013-11-02 18:35:00,
2013-11-02 14:40:00,51.6,10.6,28.88,NW,312,7.0,10.0,19,0.00,CLR,,0.00,WeatherDisplay:10.37,2013-11-02 18:40:00,
2013-11-02 14:50:00,51.0,10.1,28.88,NW,304,6.0,10.0,19,0.00,CLR,,0.00,WeatherDisplay:10.37,2013-11-02 18:50:00,
2013-11-02 14:55:00,49.9,9.2,28.88,WNW,299,6.0,8.0,19,0.00,CLR,,0.00,WeatherDisplay:10.37,2013-11-02 18:55:00,
2013-11-02 15:00:00,49.5,11.1,28.88,NW,317,6.0,8.0,21,0.00,CLR,,0.00,WeatherDisplay:10.37,2013-11-02 19:00:00,
2013-11-02 15:05:00,49.3,10.9,28.88,NW,318,6.0,8.0,21,0.00,CLR,,0.00,WeatherDisplay:10.37,2013-11-02 19:05:00,
2013-11-02 15:10:00,49.1,10.8,28.88,NW,311,6.0,8.0,21,0.00,CLR,,0.00,WeatherDisplay:10.37,2013-11-02 19:10:00,
2013-11-02 15:20:00,47.5,10.4,28.88,NNW,333,6.0,9.0,22,0.00,CLR,,0.00,WeatherDisplay:10.37,2013-11-02 19:20:00,
2013-11-02 15:30:00,46.4,14.2,28.91,NW,315,5.0,8.0,27,0.00,CLR,,0.00,WeatherDisplay:10.37,2013-11-02 19:30:00,
2013-11-02 15:35:00,46.4,14.2,28.91,NW,308,5.0,9.0,27,0.00,CLR,,0.00,WeatherDisplay:10.37,2013-11-02 19:35:00,
2013-11-02 15:40:00,46.6,15.2,28.91,NW,309,5.0,7.0,28,0.00,CLR,,0.00,WeatherDisplay:10.37,2013-11-02 19:40:00,
2013-11-02 15:45:00,46.9,15.5,28.91,NW,312,5.0,8.0,28,0.00,CLR,,0.00,WeatherDisplay:10.37,2013-11-02 19:45:00,
2013-11-02 15:50:00,47.3,15.0,28.91,NW,305,5.0,6.0,27,0.00,CLR,,0.00,WeatherDisplay:10.37,2013-11-02 19:50:00,
2013-11-02 15:55:00,47.7,15.3,28.91,WNW,302,5.0,6.0,27,0.00,CLR,,0.00,WeatherDisplay:10.37,2013-11-02 19:55:00,
2013-11-02 16:05:00,48.6,15.2,28.91,NW,304,5.0,8.0,26,0.00,CLR,,0.00,WeatherDisplay:10.37,2013-11-02 20:05:00,
2013-11-02 16:10:00,48.9,15.5,28.91,NW,306,5.0,8.0,26,0.00,CLR,,0.00,WeatherDisplay:10.37,2013-11-02 20:10:00,
2013-11-02 16:20:00,49.3,13.9,28.91,NW,318,5.0,6.0,24,0.00,CLR,,0.00,WeatherDisplay:10.37,2013-11-02 20:20:00,
2013-11-02 16:30:00,46.9,11.9,28.91,NW,326,8.0,12.0,24,0.00,CLR,,0.00,WeatherDisplay:10.37,2013-11-02 20:30:00,
2013-11-02 16:40:00,45.9,14.5,28.91,NNW,327,7.0,8.0,28,0.00,CLR,,0.00,WeatherDisplay:10.37,2013-11-02 20:40:00,
2013-11-02 16:50:00,45.3,14.9,28.91,NW,322,5.0,8.0,29,0.00,CLR,,0.00,WeatherDisplay:10.37,2013-11-02 20:50:00,
2013-11-02 17:00:00,45.5,15.0,28.94,NW,320,5.0,8.0,29,0.00,CLR,,0.00,WeatherDisplay:10.37,2013-11-02 21:00:00,
2013-11-02 17:05:00,45.7,14.4,28.94,NW,325,6.0,8.0,28,0.00,CLR,,0.00,WeatherDisplay:10.37,2013-11-02 21:05:00,
2013-11-02 17:10:00,45.7,14.4,28.94,NW,325,5.0,8.0,28,0.00,CLR,,0.00,WeatherDisplay:10.37,2013-11-02 21:10:00,
2013-11-02 17:15:00,46.0,14.7,28.94,NW,324,5.0,7.0,28,0.00,CLR,,0.00,WeatherDisplay:10.37,2013-11-02 21:15:00,
2013-11-02 17:20:00,46.0,14.7,28.94,NW,323,6.0,8.0,28,0.00,CLR,,0.00,WeatherDisplay:10.37,2013-11-02 21:20:00,
2013-11-02 17:25:00,46.0,14.7,28.94,NW,320,5.0,8.0,28,0.00,CLR,,0.00,WeatherDisplay:10.37,2013-11-02 21:25:00,
2013-11-02 17:35:00,45.9,14.6,28.94,NW,314,5.0,6.0,28,0.00,CLR,,0.00,WeatherDisplay:10.37,2013-11-02 21:35:00,
2013-11-02 17:40:00,45.9,14.5,28.94,NW,309,6.0,8.0,28,0.00,CLR,,0.00,WeatherDisplay:10.37,2013-11-02 21:40:00,
2013-11-02 17:50:00,45.7,15.2,28.94,NW,307,6.0,8.0,29,0.00,CLR,,0.00,WeatherDisplay:10.37,2013-11-02 21:50:00,
2013-11-02 17:55:00,45.5,15.0,28.95,NW,318,6.0,8.0,29,0.00,CLR,,0.00,WeatherDisplay:10.37,2013-11-02 21:55:00,
2013-11-02 18:00:00,45.2,14.7,28.97,NW,324,8.0,9.0,29,0.00,CLR,,0.00,WeatherDisplay:10.37,2013-11-02 22:00:00,
2013-11-02 18:05:00,44.8,13.6,28.97,NNW,335,5.0,8.0,28,0.00,CLR,,0.00,WeatherDisplay:10.37,2013-11-02 22:05:00,
2013-11-02 18:10:00,44.6,13.5,28.97,NNW,343,2.0,5.0,28,0.00,CLR,,0.00,WeatherDisplay:10.37,2013-11-02 22:10:00,
2013-11-02 18:15:00,44.2,13.9,28.97,NNW,340,3.0,6.0,29,0.00,CLR,,0.00,WeatherDisplay:10.37,2013-11-02 22:15:00,
2013-11-02 18:20:00,43.9,13.7,28.97,NNW,336,3.0,6.0,29,0.00,CLR,,0.00,WeatherDisplay:10.37,2013-11-02 22:20:00,
2013-11-02 18:30:00,43.7,13.5,28.97,NNW,331,5.0,6.0,29,0.00,CLR,,0.00,WeatherDisplay:10.37,2013-11-02 22:30:00,
2013-11-02 18:40:00,43.7,13.5,28.98,NW,319,3.0,5.0,29,0.00,CLR,,0.00,WeatherDisplay:10.37,2013-11-02 22:40:00,
2013-11-02 18:45:00,43.5,13.3,29.00,NW,315,5.0,5.0,29,0.00,CLR,,0.00,WeatherDisplay:10.37,2013-11-02 22:45:00,
2013-11-02 18:50:00,43.5,13.3,29.00,NW,312,3.0,6.0,29,0.00,CLR,,0.00,WeatherDisplay:10.37,2013-11-02 22:50:00,
2013-11-02 18:55:00,43.5,13.3,29.00,NW,314,3.0,5.0,29,0.00,CLR,,0.00,WeatherDisplay:10.37,2013-11-02 22:55:00,
2013-11-02 19:00:00,43.3,13.2,29.00,NW,314,3.0,6.0,29,0.00,CLR,,0.00,WeatherDisplay:10.37,2013-11-02 23:00:00,
2013-11-02 19:05:00,43.3,13.2,29.00,NW,313,3.0,5.0,29,0.00,CLR,,0.00,WeatherDisplay:10.37,2013-11-02 23:05:00,
2013-11-02 19:10:00,43.3,13.2,29.00,NW,306,3.0,6.0,29,0.00,CLR,,0.00,WeatherDisplay:10.37,2013-11-02 23:10:00,
2013-11-02 19:20:00,43.3,13.2,29.00,WNW,302,2.0,4.0,29,0.00,CLR,,0.00,WeatherDisplay:10.37,2013-11-02 23:20:00,
2013-11-02 19:30:00,43.3,13.9,29.00,WNW,302,2.0,5.0,30,0.00,CLR,,0.00,WeatherDisplay:10.37,2013-11-02 23:30:00,
2013-11-02 19:35:00,43.3,13.9,29.00,WNW,302,3.0,6.0,30,0.00,CLR,,0.00,WeatherDisplay:10.37,2013-11-02 23:35:00,
2013-11-02 19:40:00,43.3,13.2,29.00,NW,307,3.0,6.0,29,0.00,CLR,,0.00,WeatherDisplay:10.37,2013-11-02 23:40:00,
2013-11-02 19:45:00,43.3,13.2,29.00,NW,305,3.0,6.0,29,0.00,CLR,,0.00,WeatherDisplay:10.37,2013-11-02 23:45:00,
2013-11-02 19:50:00,43.3,13.2,29.00,NW,305,3.0,6.0,29,0.00,CLR,,0.00,WeatherDisplay:10.37,2013-11-02 23:50:00,
2013-11-02 20:00:00,43.3,13.2,29.00,NW,307,3.0,6.0,29,0.00,CLR,,0.00,WeatherDisplay:10.37,2013-11-03 00:00:00,
2013-11-02 20:05:00,43.5,13.3,29.00,NW,307,3.0,6.0,29,0.00,CLR,,0.00,WeatherDisplay:10.37,2013-11-03 00:05:00,
2013-11-02 20:10:00,43.5,13.3,29.02,NW,308,5.0,8.0,29,0.00,CLR,,0.00,WeatherDisplay:10.37,2013-11-03 00:10:00,
2013-11-02 20:20:00,43.5,14.1,29.03,NW,305,3.0,6.0,30,0.00,CLR,,0.00,WeatherDisplay:10.37,2013-11-03 00:20:00,
2013-11-02 20:25:00,43.5,14.1,29.03,NW,304,5.0,6.0,30,0.00,CLR,,0.00,WeatherDisplay:10.37,2013-11-03 00:25:00,
2013-11-02 20:30:00,43.5,14.1,29.03,WNW,303,2.0,6.0,30,0.00,CLR,,0.00,WeatherDisplay:10.37,2013-11-03 00:30:00,
2013-11-02 20:35:00,43.7,14.2,29.03,NW,307,3.0,6.0,30,0.00,CLR,,0.00,WeatherDisplay:10.37,2013-11-03 00:35:00,
2013-11-02 20:40:00,43.7,14.2,29.03,NW,307,3.0,7.0,30,0.00,CLR,,0.00,WeatherDisplay:10.37,2013-11-03 00:40:00,
2013-11-02 20:45:00,43.7,14.2,29.03,NW,307,3.0,6.0,30,0.00,CLR,,0.00,WeatherDisplay:10.37,2013-11-03 00:45:00,
2013-11-02 20:50:00,43.5,14.1,29.03,NW,307,3.0,6.0,30,0.00,CLR,,0.00,WeatherDisplay:10.37,2013-11-03 00:50:00,
2013-11-02 21:00:00,43.5,14.1,29.03,NW,307,3.0,6.0,30,0.00,CLR,,0.00,WeatherDisplay:10.37,2013-11-03 01:00:00,
2013-11-02 21:05:00,43.5,14.1,29.03,WNW,302,3.0,6.0,30,0.00,CLR,,0.00,WeatherDisplay:10.37,2013-11-03 01:05:00,
2013-11-02 21:10:00,43.5,14.1,29.03,NW,307,3.0,6.0,30,0.00,CLR,,0.00,WeatherDisplay:10.37,2013-11-03 01:10:00,
2013-11-02 21:15:00,43.5,14.1,29.03,NW,313,3.0,8.0,30,0.00,CLR,,0.00,WeatherDisplay:10.37,2013-11-03 01:15:00,
2013-11-02 21:20:00,43.5,13.3,29.03,NW,311,5.0,6.0,29,0.00,CLR,,0.00,WeatherDisplay:10.37,2013-11-03 01:20:00,
2013-11-02 21:25:00,43.5,13.3,29.03,NW,307,5.0,6.0,29,0.00,CLR,,0.00,WeatherDisplay:10.37,2013-11-03 01:25:00,
2013-11-02 21:30:00,43.5,13.3,29.03,NW,312,3.0,6.0,29,0.00,CLR,,0.00,WeatherDisplay:10.37,2013-11-03 01:30:00,
2013-11-02 21:40:00,43.5,13.3,29.03,NW,312,5.0,6.0,29,0.00,CLR,,0.00,WeatherDisplay:10.37,2013-11-03 01:40:00,
2013-11-02 21:50:00,43.5,13.3,29.06,NW,310,3.0,6.0,29,0.00,CLR,,0.00,WeatherDisplay:10.37,2013-11-03 01:50:00,
2013-11-02 22:00:00,43.5,13.3,29.06,NW,309,3.0,6.0,29,0.00,CLR,,0.00,WeatherDisplay:10.37,2013-11-03 02:00:00,
2013-11-02 22:05:00,43.3,13.2,29.06,NW,308,3.0,6.0,29,0.00,CLR,,0.00,WeatherDisplay:10.37,2013-11-03 02:05:00,
2013-11-02 22:10:00,43.3,13.2,29.06,WNW,303,3.0,7.0,29,0.00,CLR,,0.00,WeatherDisplay:10.37,2013-11-03 02:10:00,
2013-11-02 22:15:00,43.3,12.4,29.06,NW,308,3.0,6.0,28,0.00,CLR,,0.00,WeatherDisplay:10.37,2013-11-03 02:15:00,
2013-11-02 22:20:00,43.3,12.4,29.06,NW,306,3.0,6.0,28,0.00,CLR,,0.00,WeatherDisplay:10.37,2013-11-03 02:20:00,
2013-11-02 22:30:00,43.3,12.4,29.06,NW,305,3.0,7.0,28,0.00,CLR,,0.00,WeatherDisplay:10.37,2013-11-03 02:30:00,
2013-11-02 22:40:00,43.2,12.2,29.06,NW,304,3.0,6.0,28,0.00,CLR,,0.00,WeatherDisplay:10.37,2013-11-03 02:40:00,
2013-11-02 22:45:00,43.2,12.2,29.06,NW,310,3.0,5.0,28,0.00,CLR,,0.00,WeatherDisplay:10.37,2013-11-03 02:45:00,
2013-11-02 22:50:00,43.2,12.2,29.06,NW,305,3.0,6.0,28,0.00,CLR,,0.00,WeatherDisplay:10.37,2013-11-03 02:50:00,
2013-11-02 22:55:00,43.0,12.0,29.06,WNW,300,5.0,7.0,28,0.00,CLR,,0.00,WeatherDisplay:10.37,2013-11-03 02:55:00,
2013-11-02 23:00:00,43.0,12.0,29.06,NW,304,3.0,6.0,28,0.00,CLR,,0.00,WeatherDisplay:10.37,2013-11-03 03:00:00,
2013-11-02 23:05:00,43.2,12.2,29.06,NW,305,5.0,6.0,28,0.00,CLR,,0.00,WeatherDisplay:10.37,2013-11-03 03:05:00,
2013-11-02 23:10:00,43.2,12.2,29.06,NW,306,3.0,7.0,28,0.00,CLR,,0.00,WeatherDisplay:10.37,2013-11-03 03:10:00,
2013-11-02 23:20:00,43.2,12.2,29.06,NW,307,3.0,6.0,28,0.00,CLR,,0.00,WeatherDisplay:10.37,2013-11-03 03:20:00,
2013-11-02 23:30:00,43.0,12.0,29.06,WNW,303,3.0,5.0,28,0.00,CLR,,0.00,WeatherDisplay:10.37,2013-11-03 03:30:00,
2013-11-02 23:40:00,42.8,11.9,29.07,NW,304,3.0,6.0,28,0.00,CLR,,0.00,WeatherDisplay:10.37,2013-11-03 03:40:00,
2013-11-02 23:45:00,42.8,11.9,29.09,WNW,303,3.0,6.0,28,0.00,CLR,,0.00,WeatherDisplay:10.37,2013-11-03 03:45:00,
2013-11-02 23:50:00,42.8,11.9,29.09,WNW,302,3.0,6.0,28,0.00,CLR,,0.00,WeatherDisplay:10.37,2013-11-03 03:50:00,
2013-11-02 23:55:00,42.8,11.9,29.09,NW,304,3.0,6.0,28,0.00,CLR,,0.00,WeatherDisplay:10.37,2013-11-03 03:55:00,